TimeCST,TemperatureF,Dew PointF,Humidity,Sea Level PressureIn,VisibilityMPH,Wind Direction,Wind SpeedMPH,Gust SpeedMPH,PrecipitationIn,Events,Conditions,WindDirDegrees,DateUTC
8:55 AM,33.8,32.0,93,30.26,10.0,Calm,Calm,-,N/A,,Clear,0,2013-01-03 14:55:00
9:15 AM,33.8,32.0,93,30.26,10.0,Calm,Calm,-,N/A,,Clear,0,2013-01-03 15:15:00
9:35 AM,37.4,32.0,81,30.26,10.0,Calm,Calm,-,N/A,,Clear,0,2013-01-03 15:35:00
9:55 AM,37.4,30.2,75,30.26,10.0,NNE,3.5,-,N/A,,Clear,30,2013-01-03 15:55:00
10:35 AM,39.2,30.2,70,30.26,10.0,NE,8.1,-,N/A,,Scattered Clouds,40,2013-01-03 16:35:00
10:55 AM,39.2,30.2,70,30.25,10.0,NNE,6.9,-,N/A,,Scattered Clouds,20,2013-01-03 16:55:00
11:15 AM,39.2,30.2,70,30.25,10.0,ENE,5.8,-,N/A,,Clear,60,2013-01-03 17:15:00
11:35 AM,42.8,28.4,57,30.24,10.0,NE,3.5,-,N/A,,Clear,50,2013-01-03 17:35:00
11:55 AM,42.8,28.4,57,30.23,10.0,WNW,3.5,-,N/A,,Clear,300,2013-01-03 17:55:00
12:15 PM,42.8,28.4,57,30.23,10.0,North,11.5,-,N/A,,Clear,10,2013-01-03 18:15:00
12:35 PM,42.8,28.4,57,30.22,10.0,NNE,4.6,-,N/A,,Clear,20,2013-01-03 18:35:00
12:55 PM,42.8,28.4,57,30.22,10.0,ENE,4.6,-,N/A,,Clear,60,2013-01-03 18:55:00
1:15 PM,42.8,28.4,57,30.22,10.0,Calm,Calm,-,N/A,,Clear,0,2013-01-03 19:15:00
1:35 PM,44.6,28.4,53,30.22,10.0,Calm,Calm,-,N/A,,Clear,0,2013-01-03 19:35:00
1:55 PM,44.6,28.4,53,30.23,10.0,NW,4.6,-,N/A,,Clear,310,2013-01-03 19:55:00
2:15 PM,44.6,28.4,53,30.23,10.0,Calm,Calm,-,N/A,,Clear,0,2013-01-03 20:15:00
2:35 PM,44.6,28.4,53,30.23,10.0,NW,4.6,-,N/A,,Clear,310,2013-01-03 20:35:00
2:55 PM,44.6,28.4,53,30.25,10.0,North,5.8,-,N/A,,Clear,350,2013-01-03 20:55:00
3:15 PM,42.8,28.4,57,30.25,10.0,NW,8.1,-,N/A,,Clear,320,2013-01-03 21:15:00
3:55 PM,41.0,28.4,61,30.27,10.0,NW,4.6,-,N/A,,Clear,320,2013-01-03 21:55:00
4:15 PM,39.2,28.4,65,30.27,10.0,NW,3.5,-,N/A,,Clear,310,2013-01-03 22:15:00
4:35 PM,37.4,28.4,70,30.27,10.0,Calm,Calm,-,N/A,,Clear,0,2013-01-03 22:35:00
4:55 PM,35.6,28.4,75,30.28,10.0,Calm,Calm,-,N/A,,Clear,0,2013-01-03 22:55:00
5:15 PM,35.6,28.4,75,30.29,10.0,Calm,Calm,-,N/A,,Clear,0,2013-01-03 23:15:00
5:35 PM,33.8,28.4,81,30.30,10.0,Calm,Calm,-,N/A,,Clear,0,2013-01-03 23:35:00
5:55 PM,33.8,28.4,81,30.30,10.0,Calm,Calm,-,N/A,,Clear,0,2013-01-03 23:55:00
6:15 PM,32.0,28.4,87,30.30,10.0,Calm,Calm,-,N/A,,Clear,0,2013-01-04 00:15:00
6:35 PM,30.2,28.4,93,30.30,10.0,Calm,Calm,-,N/A,,Clear,0,2013-01-04 00:35:00
6:55 PM,30.2,28.4,93,30.31,10.0,Calm,Calm,-,N/A,,Clear,0,2013-01-04 00:55:00
7:15 PM,28.4,28.4,100,30.31,10.0,Calm,Calm,-,N/A,,Clear,0,2013-01-04 01:15:00
7:35 PM,28.4,28.4,100,30.31,10.0,Calm,Calm,-,N/A,,Clear,0,2013-01-04 01:35:00
7:55 PM,28.4,28.4,100,30.32,10.0,Calm,Calm,-,N/A,,Clear,0,2013-01-04 01:55:00
8:15 PM,28.4,28.4,100,30.31,10.0,Calm,Calm,-,N/A,,Clear,0,2013-01-04 02:15:00
8:35 PM,28.4,26.6,93,30.32,10.0,Calm,Calm,-,N/A,,Clear,0,2013-01-04 02:35:00
8:55 PM,28.4,26.6,93,30.32,10.0,Calm,Calm,-,N/A,,Clear,0,2013-01-04 02:55:00
9:15 PM,26.6,26.6,100,30.33,10.0,Calm,Calm,-,N/A,,Clear,0,2013-01-04 03:15:00
9:35 PM,26.6,26.6,100,30.33,10.0,Calm,Calm,-,N/A,,Clear,0,2013-01-04 03:35:00
9:55 PM,26.6,26.6,100,30.34,10.0,Calm,Calm,-,N/A,,Clear,0,2013-01-04 03:55:00
10:15 PM,26.6,24.8,93,30.34,10.0,Calm,Calm,-,N/A,,Clear,0,2013-01-04 04:15:00
10:35 PM,26.6,24.8,93,30.35,10.0,Calm,Calm,-,N/A,,Clear,0,2013-01-04 04:35:00
10:55 PM,24.8,24.8,100,30.36,10.0,Calm,Calm,-,N/A,,Clear,0,2013-01-04 04:55:00
11:15 PM,24.8,24.8,100,30.36,10.0,Calm,Calm,-,N/A,,Clear,0,2013-01-04 05:15:00
11:35 PM,24.8,24.8,100,30.36,10.0,Calm,Calm,-,N/A,,Clear,0,2013-01-04 05:35:00
11:55 PM,24.8,24.8,100,30.36,10.0,Calm,Calm,-,N/A,,Clear,0,2013-01-04 05:55:00